Location: Haliburton Scout Reserve
(45.0900°N, 78.3200°W)
Time: 04:01:38
(UTC-05:00)

Tiangong - Pass Details

Date: 05 December 2022
Orbit: 383 x 386 km, 41.5° (Epoch: 01 February)

Event Time Altitude Azimuth Distance (km) Brightness Sun altitude
Rises 18:17:33 0° 262° (W) 2,253 3.5 -18.0°
Reaches altitude 10° 18:19:40 10° 255° (WSW) 1,401 2.0 -18.4°
Maximum altitude 18:22:41 42° 183° (S) 559 -1.3 -18.9°
Enters shadow 18:23:04 40° 161° (SSE) 583 -1.4 -18.9°
